Time,TemperatureF,DewpointF,PressureIn,WindDirection,WindDirectionDegrees,WindSpeedMPH,WindSpeedGustMPH,Humidity,HourlyPrecipIn,Conditions,Clouds,dailyrainin,SoftwareType,DateUTC
2013-11-28 00:01:00,33.4,30.7,29.56,NE,45,5.0,14.0,90,0.00,,,2.41,meteohub,2013-11-28 05:01:00,
2013-11-28 00:02:00,33.4,30.6,29.57,NW,315,4.0,14.0,89,0.00,,,2.41,meteohub,2013-11-28 05:02:00,
2013-11-28 00:04:00,33.4,30.2,29.57,ESE,113,5.0,14.0,88,0.00,,,2.41,meteohub,2013-11-28 05:04:00,
2013-11-28 00:09:00,33.3,30.0,29.57,NW,315,4.0,14.0,88,0.00,,,0.00,meteohub,2013-11-28 05:09:00,
2013-11-28 00:14:00,33.1,29.8,29.57,West,270,0.0,11.0,88,0.00,,,0.00,meteohub,2013-11-28 05:14:00,
2013-11-28 00:19:00,32.9,29.7,29.58,NW,315,4.0,9.0,88,0.00,,,0.00,meteohub,2013-11-28 05:19:00,
2013-11-28 00:24:00,32.7,29.8,29.59,East,90,4.0,9.0,89,0.00,,,0.00,meteohub,2013-11-28 05:24:00,
2013-11-28 00:29:00,32.5,28.8,29.60,North,0,3.0,9.0,86,0.00,,,0.00,meteohub,2013-11-28 05:29:00,
2013-11-28 00:34:00,32.4,28.9,29.60,NE,45,5.0,6.0,87,0.00,,,0.00,meteohub,2013-11-28 05:34:00,
2013-11-28 00:39:00,32.2,27.9,29.60,North,0,6.0,6.0,84,0.00,,,0.00,meteohub,2013-11-28 05:39:00,
2013-11-28 00:44:00,32.2,27.9,29.60,North,0,4.0,6.0,84,0.00,,,0.00,meteohub,2013-11-28 05:44:00,
2013-11-28 00:49:00,32.0,28.2,29.60,SW,225,6.0,13.0,86,0.00,,,0.00,meteohub,2013-11-28 05:49:00,
2013-11-28 00:54:00,32.0,28.2,29.62,SW,225,6.0,13.0,86,0.00,,,0.00,meteohub,2013-11-28 05:54:00,
2013-11-28 00:59:00,31.8,27.9,29.62,NW,315,3.0,8.0,85,0.00,,,0.00,meteohub,2013-11-28 05:59:00,
2013-11-28 01:04:00,31.8,27.9,29.62,East,90,2.0,7.0,85,0.00,,,0.00,meteohub,2013-11-28 06:04:00,
2013-11-28 01:09:00,31.6,27.7,29.62,North,0,4.0,6.0,85,0.00,,,0.00,meteohub,2013-11-28 06:09:00,
2013-11-28 01:14:00,31.5,27.5,29.62,NNE,23,2.0,5.0,85,0.00,,,0.00,meteohub,2013-11-28 06:14:00,
2013-11-28 01:19:00,31.5,27.0,29.62,NW,315,9.0,9.0,83,0.00,,,0.00,meteohub,2013-11-28 06:19:00,
2013-11-28 01:24:00,31.3,27.0,29.62,WNW,293,10.0,10.0,84,0.00,,,0.00,meteohub,2013-11-28 06:24:00,
2013-11-28 01:29:00,31.3,27.0,29.62,NW,315,7.0,10.0,84,0.00,,,0.00,meteohub,2013-11-28 06:29:00,
2013-11-28 01:34:00,31.1,26.8,29.63,SW,225,6.0,10.0,84,0.00,,,0.00,meteohub,2013-11-28 06:34:00,
2013-11-28 01:39:00,31.1,26.6,29.63,NW,315,9.0,11.0,83,0.00,,,0.00,meteohub,2013-11-28 06:39:00,
2013-11-28 01:44:00,31.1,26.8,29.63,North,0,6.0,11.0,84,0.00,,,0.00,meteohub,2013-11-28 06:44:00,
2013-11-28 01:49:00,30.9,27.1,29.65,West,270,6.0,11.0,86,0.00,,,0.00,meteohub,2013-11-28 06:49:00,
2013-11-28 01:54:00,30.9,27.0,29.65,NE,45,11.0,11.0,85,0.00,,,0.00,meteohub,2013-11-28 06:54:00,
2013-11-28 01:59:00,30.9,27.0,29.65,NW,315,4.0,11.0,85,0.00,,,0.00,meteohub,2013-11-28 06:59:00,
2013-11-28 02:04:00,30.9,27.0,29.65,NW,315,4.0,11.0,85,0.00,,,0.00,meteohub,2013-11-28 07:04:00,
2013-11-28 02:09:00,30.6,27.0,29.65,West,270,6.0,11.0,86,0.00,,,0.00,meteohub,2013-11-28 07:09:00,
2013-11-28 02:14:00,30.6,27.0,29.67,NW,315,5.0,7.0,86,0.00,,,0.00,meteohub,2013-11-28 07:14:00,
2013-11-28 02:19:00,30.6,26.6,29.66,SE,135,5.0,7.0,85,0.00,,,0.00,meteohub,2013-11-28 07:19:00,
2013-11-28 02:24:00,30.6,26.1,29.67,NW,315,4.0,10.0,83,0.00,,,0.00,meteohub,2013-11-28 07:24:00,
2013-11-28 02:29:00,30.6,26.2,29.68,North,0,8.0,10.0,84,0.00,,,0.00,meteohub,2013-11-28 07:29:00,
2013-11-28 02:34:00,30.4,25.9,29.68,North,0,5.0,10.0,83,0.00,,,0.00,meteohub,2013-11-28 07:34:00,
2013-11-28 02:39:00,30.4,25.3,29.68,NW,315,5.0,8.0,81,0.00,,,0.00,meteohub,2013-11-28 07:39:00,
2013-11-28 02:44:00,30.4,25.5,29.68,NW,315,2.0,8.0,82,0.00,,,0.00,meteohub,2013-11-28 07:44:00,
2013-11-28 02:49:00,30.2,25.2,29.69,NW,315,10.0,11.0,81,0.00,,,0.00,meteohub,2013-11-28 07:49:00,
2013-11-28 02:54:00,30.2,25.2,29.69,SW,225,4.0,11.0,81,0.00,,,0.00,meteohub,2013-11-28 07:54:00,
2013-11-28 02:59:00,30.2,25.3,29.70,East,90,3.0,10.0,82,0.00,,,0.00,meteohub,2013-11-28 07:59:00,
2013-11-28 03:04:00,30.2,25.7,29.71,NW,315,3.0,10.0,83,0.00,,,0.00,meteohub,2013-11-28 08:04:00,
2013-11-28 03:09:00,30.0,25.2,29.71,West,270,7.0,8.0,82,0.00,,,0.00,meteohub,2013-11-28 08:09:00,
2013-11-28 03:14:00,30.0,25.2,29.71,North,0,2.0,8.0,82,0.00,,,0.00,meteohub,2013-11-28 08:14:00,
2013-11-28 03:19:00,29.8,25.0,29.72,NE,45,4.0,9.0,82,0.00,,,0.00,meteohub,2013-11-28 08:19:00,
2013-11-28 03:24:00,29.8,24.1,29.72,NE,45,8.0,9.0,79,0.00,,,0.00,meteohub,2013-11-28 08:24:00,
2013-11-28 03:29:00,29.7,23.9,29.73,North,0,4.0,9.0,79,0.00,,,0.00,meteohub,2013-11-28 08:29:00,
2013-11-28 03:34:00,29.5,23.5,29.73,North,0,2.0,9.0,78,0.00,,,0.00,meteohub,2013-11-28 08:34:00,
2013-11-28 03:39:00,29.3,23.5,29.73,NW,315,7.0,8.0,79,0.00,,,0.00,meteohub,2013-11-28 08:39:00,
2013-11-28 03:44:00,29.1,23.4,29.74,East,90,5.0,9.0,79,0.00,,,0.00,meteohub,2013-11-28 08:44:00,
2013-11-28 03:49:00,29.1,22.5,29.74,North,0,8.0,10.0,76,0.00,,,0.00,meteohub,2013-11-28 08:49:00,
2013-11-28 03:54:00,28.9,22.6,29.75,West,270,6.0,10.0,77,0.00,,,0.00,meteohub,2013-11-28 08:54:00,
2013-11-28 03:59:00,28.8,22.8,29.76,NW,315,10.0,11.0,78,0.00,,,0.00,meteohub,2013-11-28 08:59:00,
2013-11-28 04:04:00,28.8,22.8,29.77,NW,315,10.0,11.0,78,0.00,,,0.00,meteohub,2013-11-28 09:04:00,
2013-11-28 04:10:00,28.6,22.6,29.77,NE,45,8.0,11.0,78,0.00,,,0.00,meteohub,2013-11-28 09:10:00,
2013-11-28 04:15:00,28.4,22.6,29.77,South,180,9.0,11.0,79,0.00,,,0.00,meteohub,2013-11-28 09:15:00,
2013-11-28 04:20:00,28.4,22.5,29.78,NW,315,7.0,10.0,78,0.00,,,0.00,meteohub,2013-11-28 09:20:00,
2013-11-28 04:25:00,28.4,22.5,29.79,East,90,6.0,13.0,78,0.00,,,0.00,meteohub,2013-11-28 09:25:00,
2013-11-28 04:30:00,28.2,22.8,29.79,North,0,4.0,13.0,80,0.00,,,0.00,meteohub,2013-11-28 09:30:00,
2013-11-28 04:35:00,28.0,22.5,29.80,NW,315,3.0,13.0,79,0.00,,,0.00,meteohub,2013-11-28 09:35:00,
2013-11-28 04:40:00,28.0,22.5,29.80,NW,315,7.0,9.0,79,0.00,,,0.00,meteohub,2013-11-28 09:40:00,
2013-11-28 04:45:00,27.9,22.5,29.81,NW,315,3.0,8.0,80,0.00,,,0.00,meteohub,2013-11-28 09:45:00,
2013-11-28 04:50:00,27.9,22.3,29.82,NNW,338,5.0,8.0,79,0.00,,,0.00,meteohub,2013-11-28 09:50:00,
2013-11-28 04:55:00,27.7,21.4,29.83,NW,315,8.0,8.0,77,0.00,,,0.00,meteohub,2013-11-28 09:55:00,
2013-11-28 05:00:00,27.7,21.0,29.83,North,0,7.0,9.0,76,0.00,,,0.00,meteohub,2013-11-28 10:00:00,
2013-11-28 05:05:00,27.7,21.0,29.84,North,0,7.0,9.0,76,0.00,,,0.00,meteohub,2013-11-28 10:05:00,
2013-11-28 05:10:00,27.5,21.0,29.84,NW,315,10.0,10.0,76,0.00,,,0.00,meteohub,2013-11-28 10:10:00,
2013-11-28 05:15:00,27.5,20.7,29.85,NW,315,6.0,10.0,75,0.00,,,0.00,meteohub,2013-11-28 10:15:00,
2013-11-28 05:20:00,27.5,19.6,29.86,West,270,5.0,10.0,72,0.00,,,0.00,meteohub,2013-11-28 10:20:00,
2013-11-28 05:25:00,27.5,20.3,29.85,WNW,293,4.0,10.0,74,0.00,,,0.00,meteohub,2013-11-28 10:25:00,
2013-11-28 05:30:00,27.3,19.8,29.86,South,180,8.0,10.0,73,0.00,,,0.00,meteohub,2013-11-28 10:30:00,
2013-11-28 05:35:00,27.3,19.6,29.86,West,270,4.0,8.0,72,0.00,,,0.00,meteohub,2013-11-28 10:35:00,
2013-11-28 05:40:00,27.3,19.8,29.87,West,270,6.0,8.0,73,0.00,,,0.00,meteohub,2013-11-28 10:40:00,
2013-11-28 05:45:00,27.3,19.8,29.87,SSE,158,4.0,8.0,73,0.00,,,0.00,meteohub,2013-11-28 10:45:00,
2013-11-28 05:50:00,27.3,19.8,29.88,NW,315,4.0,8.0,73,0.00,,,0.00,meteohub,2013-11-28 10:50:00,
2013-11-28 05:55:00,27.3,19.8,29.88,NW,315,7.0,8.0,73,0.00,,,0.00,meteohub,2013-11-28 10:55:00,
2013-11-28 06:00:00,27.1,19.6,29.88,SW,225,4.0,11.0,73,0.00,,,0.00,meteohub,2013-11-28 11:00:00,
2013-11-28 06:05:00,27.1,19.9,29.89,North,0,7.0,11.0,74,0.00,,,0.00,meteohub,2013-11-28 11:05:00,
2013-11-28 06:10:00,27.1,20.3,29.90,North,0,4.0,11.0,75,0.00,,,0.00,meteohub,2013-11-28 11:10:00,
2013-11-28 06:15:00,27.0,19.8,29.90,NNW,338,6.0,9.0,74,0.00,,,0.00,meteohub,2013-11-28 11:15:00,
2013-11-28 06:20:00,27.0,19.8,29.91,NNW,338,6.0,9.0,74,0.00,,,0.00,meteohub,2013-11-28 11:20:00,
2013-11-28 06:25:00,26.8,20.5,29.91,North,0,4.0,9.0,77,0.00,,,0.00,meteohub,2013-11-28 11:25:00,
2013-11-28 06:30:00,27.0,20.5,29.91,East,90,4.0,7.0,76,0.00,,,0.00,meteohub,2013-11-28 11:30:00,
2013-11-28 06:35:00,27.0,20.5,29.92,West,270,6.0,7.0,76,0.00,,,0.00,meteohub,2013-11-28 11:35:00,
2013-11-28 06:40:00,26.8,20.3,29.94,NW,315,1.0,10.0,76,0.00,,,0.00,meteohub,2013-11-28 11:40:00,
2013-11-28 06:45:00,26.8,20.5,29.94,NW,315,5.0,10.0,77,0.00,,,0.00,meteohub,2013-11-28 11:45:00,
2013-11-28 06:50:00,26.6,20.7,29.94,SW,225,2.0,6.0,78,0.00,,,0.00,meteohub,2013-11-28 11:50:00,
2013-11-28 06:55:00,26.6,21.0,29.94,North,0,2.0,6.0,79,0.00,,,0.00,meteohub,2013-11-28 11:55:00,
2013-11-28 07:00:00,26.4,20.8,29.95,South,180,1.0,5.0,79,0.00,,,0.00,meteohub,2013-11-28 12:00:00,
2013-11-28 07:05:00,26.4,20.8,29.95,NW,315,0.0,10.0,79,0.00,,,0.00,meteohub,2013-11-28 12:05:00,
2013-11-28 07:10:00,26.6,20.7,29.96,North,0,0.0,10.0,78,0.00,,,0.00,meteohub,2013-11-28 12:10:00,
2013-11-28 07:15:00,26.6,20.7,29.96,NW,315,0.0,10.0,78,0.00,,,0.00,meteohub,2013-11-28 12:15:00,
2013-11-28 07:20:00,26.6,20.7,29.97,SE,135,0.0,10.0,78,0.00,,,0.00,meteohub,2013-11-28 12:20:00,
2013-11-28 07:25:00,26.6,20.7,29.98,NNW,338,0.0,10.0,78,0.00,,,0.00,meteohub,2013-11-28 12:25:00,
2013-11-28 07:30:00,26.8,20.8,29.98,NNW,338,0.0,0.0,78,0.00,,,0.00,meteohub,2013-11-28 12:30:00,
2013-11-28 07:35:00,26.8,20.5,29.99,North,0,0.0,0.0,77,0.00,,,0.00,meteohub,2013-11-28 12:35:00,
2013-11-28 07:40:00,26.8,20.5,29.99,SE,135,0.0,0.0,77,0.00,,,0.00,meteohub,2013-11-28 12:40:00,
2013-11-28 07:45:00,26.8,20.8,29.99,North,0,0.0,0.0,78,0.00,,,0.00,meteohub,2013-11-28 12:45:00,
2013-11-28 07:50:00,26.8,21.2,29.99,North,0,0.0,0.0,79,0.00,,,0.00,meteohub,2013-11-28 12:50:00,
2013-11-28 07:55:00,27.0,21.4,29.99,North,0,0.0,0.0,79,0.00,,,0.00,meteohub,2013-11-28 12:55:00,
2013-11-28 08:00:00,27.1,21.6,30.00,SW,225,0.0,0.0,79,0.00,,,0.00,meteohub,2013-11-28 13:00:00,
2013-11-28 08:05:00,27.5,21.6,30.00,NW,315,0.0,0.0,78,0.00,,,0.00,meteohub,2013-11-28 13:05:00,
2013-11-28 08:10:00,28.2,22.3,30.00,West,270,0.0,0.0,78,0.00,,,0.00,meteohub,2013-11-28 13:10:00,
2013-11-28 08:15:00,28.8,22.5,30.01,West,270,0.0,0.0,77,0.00,,,0.00,meteohub,2013-11-28 13:15:00,
2013-11-28 08:20:00,28.9,22.1,30.00,North,0,0.0,0.0,75,0.00,,,0.00,meteohub,2013-11-28 13:20:00,
2013-11-28 08:25:00,28.8,21.6,30.01,SW,225,0.0,0.0,74,0.00,,,0.00,meteohub,2013-11-28 13:25:00,
2013-11-28 08:30:00,28.8,21.9,30.01,NW,315,0.0,0.0,75,0.00,,,0.00,meteohub,2013-11-28 13:30:00,
2013-11-28 08:35:00,28.9,21.4,30.02,NW,315,0.0,0.0,73,0.00,,,0.00,meteohub,2013-11-28 13:35:00,
2013-11-28 08:40:00,29.5,22.3,30.01,North,0,0.0,0.0,74,0.00,,,0.00,meteohub,2013-11-28 13:40:00,
2013-11-28 08:45:00,30.0,22.8,30.01,NE,45,0.0,0.0,74,0.00,,,0.00,meteohub,2013-11-28 13:45:00,
2013-11-28 08:50:00,29.7,22.1,30.02,North,0,0.0,0.0,73,0.00,,,0.00,meteohub,2013-11-28 13:50:00,
2013-11-28 08:55:00,29.8,21.9,30.03,SW,225,0.0,0.0,72,0.00,,,0.00,meteohub,2013-11-28 13:55:00,
2013-11-28 09:01:00,29.7,21.0,30.03,NW,315,0.0,0.0,70,0.00,,,0.00,meteohub,2013-11-28 14:01:00,
2013-11-28 09:06:00,28.9,20.7,30.04,NW,315,0.0,0.0,71,0.00,,,0.00,meteohub,2013-11-28 14:06:00,
2013-11-28 09:11:00,29.3,21.0,30.05,North,0,0.0,0.0,71,0.00,,,0.00,meteohub,2013-11-28 14:11:00,
2013-11-28 09:16:00,29.5,20.7,30.05,WSW,248,0.0,0.0,69,0.00,,,0.00,meteohub,2013-11-28 14:16:00,
2013-11-28 09:21:00,30.0,21.0,30.06,West,270,0.0,0.0,69,0.00,,,0.00,meteohub,2013-11-28 14:21:00,
2013-11-28 09:26:00,30.7,21.4,30.06,South,180,0.0,0.0,68,0.00,,,0.00,meteohub,2013-11-28 14:26:00,
2013-11-28 09:31:00,30.4,20.7,30.06,West,270,0.0,1.0,67,0.00,,,0.00,meteohub,2013-11-28 14:31:00,
2013-11-28 09:36:00,30.2,20.5,30.06,North,0,0.0,1.0,67,0.00,,,0.00,meteohub,2013-11-28 14:36:00,
2013-11-28 09:41:00,30.2,20.3,30.06,North,0,0.0,1.0,66,0.00,,,0.00,meteohub,2013-11-28 14:41:00,
2013-11-28 09:46:00,30.2,20.5,30.07,East,90,0.0,0.0,67,0.00,,,0.00,meteohub,2013-11-28 14:46:00,
2013-11-28 09:51:00,30.0,20.5,30.08,NW,315,0.0,0.0,67,0.00,,,0.00,meteohub,2013-11-28 14:51:00,
2013-11-28 09:56:00,30.4,21.0,30.08,NW,315,0.0,0.0,68,0.00,,,0.00,meteohub,2013-11-28 14:56:00,
2013-11-28 10:01:00,30.6,20.5,30.08,SW,225,0.0,0.0,66,0.00,,,0.00,meteohub,2013-11-28 15:01:00,
2013-11-28 10:06:00,31.1,21.7,30.08,NW,315,0.0,0.0,68,0.00,,,0.00,meteohub,2013-11-28 15:06:00,
2013-11-28 10:11:00,31.5,21.0,30.08,NW,315,0.0,0.0,65,0.00,,,0.00,meteohub,2013-11-28 15:11:00,
2013-11-28 10:16:00,31.6,21.2,30.09,North,0,0.0,0.0,65,0.00,,,0.00,meteohub,2013-11-28 15:16:00,
2013-11-28 10:21:00,30.9,19.8,30.09,North,0,0.0,0.0,63,0.00,,,0.00,meteohub,2013-11-28 15:21:00,
2013-11-28 10:26:00,30.9,20.1,30.09,NW,315,0.0,0.0,64,0.00,,,0.00,meteohub,2013-11-28 15:26:00,
2013-11-28 10:31:00,30.7,19.6,30.09,WNW,293,0.0,0.0,63,0.00,,,0.00,meteohub,2013-11-28 15:31:00,
2013-11-28 10:36:00,30.9,19.4,30.09,SW,225,0.0,0.0,62,0.00,,,0.00,meteohub,2013-11-28 15:36:00,
2013-11-28 10:41:00,30.7,19.6,30.09,NW,315,0.0,0.0,63,0.00,,,0.00,meteohub,2013-11-28 15:41:00,
2013-11-28 10:46:00,30.7,19.9,30.09,WSW,248,0.0,0.0,64,0.00,,,0.00,meteohub,2013-11-28 15:46:00,
2013-11-28 10:51:00,31.1,19.9,30.09,NW,315,0.0,0.0,63,0.00,,,0.00,meteohub,2013-11-28 15:51:00,
2013-11-28 10:56:00,31.3,19.4,30.09,NW,315,0.0,0.0,61,0.00,,,0.00,meteohub,2013-11-28 15:56:00,
2013-11-28 11:01:00,31.6,19.8,30.09,North,0,0.0,0.0,61,0.00,,,0.00,meteohub,2013-11-28 16:01:00,
2013-11-28 11:06:00,32.7,20.8,30.09,North,0,0.0,0.0,61,0.00,,,0.00,meteohub,2013-11-28 16:06:00,
2013-11-28 11:11:00,33.8,21.7,30.09,NW,315,0.0,0.0,61,0.00,,,0.00,meteohub,2013-11-28 16:11:00,
2013-11-28 11:16:00,33.8,20.7,30.09,North,0,4.0,6.0,58,0.00,,,0.00,meteohub,2013-11-28 16:16:00,
2013-11-28 11:21:00,34.5,21.7,30.09,North,0,3.0,6.0,59,0.00,,,0.00,meteohub,2013-11-28 16:21:00,
2013-11-28 11:26:00,34.0,21.6,30.09,NW,315,5.0,6.0,60,0.00,,,0.00,meteohub,2013-11-28 16:26:00,
2013-11-28 11:31:00,33.6,19.9,30.08,South,180,8.0,11.0,57,0.00,,,0.00,meteohub,2013-11-28 16:31:00,
2013-11-28 11:36:00,32.0,18.9,30.09,ENE,68,7.0,14.0,58,0.00,,,0.00,meteohub,2013-11-28 16:36:00,
2013-11-28 11:41:00,32.0,19.2,30.09,SW,225,7.0,14.0,59,0.00,,,0.00,meteohub,2013-11-28 16:41:00,
2013-11-28 11:46:00,32.2,19.9,30.09,NNW,338,3.0,14.0,60,0.00,,,0.00,meteohub,2013-11-28 16:46:00,
2013-11-28 11:51:00,32.2,19.4,30.09,West,270,4.0,11.0,59,0.00,,,0.00,meteohub,2013-11-28 16:51:00,
2013-11-28 11:56:00,31.8,18.3,30.09,SE,135,9.0,11.0,57,0.00,,,0.00,meteohub,2013-11-28 16:56:00,
2013-11-28 12:01:00,31.8,19.6,30.10,East,90,4.0,11.0,60,0.00,,,0.00,meteohub,2013-11-28 17:01:00,
2013-11-28 12:06:00,32.0,19.8,30.09,West,270,4.0,9.0,60,0.00,,,0.00,meteohub,2013-11-28 17:06:00,
2013-11-28 12:11:00,32.0,18.9,30.10,North,0,5.0,9.0,58,0.00,,,0.00,meteohub,2013-11-28 17:11:00,
2013-11-28 12:16:00,31.8,18.7,30.10,North,0,4.0,9.0,58,0.00,,,0.00,meteohub,2013-11-28 17:16:00,
2013-11-28 12:21:00,32.4,19.6,30.11,North,0,4.0,10.0,59,0.00,,,0.00,meteohub,2013-11-28 17:21:00,
2013-11-28 12:26:00,32.5,19.0,30.10,North,0,5.0,10.0,57,0.00,,,0.00,meteohub,2013-11-28 17:26:00,
2013-11-28 12:31:00,33.1,19.9,30.11,North,0,5.0,8.0,58,0.00,,,0.00,meteohub,2013-11-28 17:31:00,
2013-11-28 12:36:00,32.7,18.3,30.11,NW,315,6.0,8.0,55,0.00,,,0.00,meteohub,2013-11-28 17:36:00,
2013-11-28 12:41:00,32.5,18.1,30.10,NW,315,7.0,9.0,55,0.00,,,0.00,meteohub,2013-11-28 17:41:00,
2013-11-28 12:46:00,32.4,18.5,30.11,NW,315,6.0,16.0,56,0.00,,,0.00,meteohub,2013-11-28 17:46:00,
2013-11-28 12:51:00,32.7,18.7,30.11,WSW,248,4.0,16.0,56,0.00,,,0.00,meteohub,2013-11-28 17:51:00,
2013-11-28 12:56:00,33.4,19.0,30.11,NE,45,5.0,16.0,55,0.00,,,0.00,meteohub,2013-11-28 17:56:00,
2013-11-28 13:01:00,32.9,18.5,30.11,North,0,11.0,11.0,55,0.00,,,0.00,meteohub,2013-11-28 18:01:00,
2013-11-28 13:06:00,33.3,19.8,30.12,West,270,3.0,11.0,57,0.00,,,0.00,meteohub,2013-11-28 18:06:00,
2013-11-28 13:11:00,33.3,18.9,30.12,SE,135,7.0,11.0,55,0.00,,,0.00,meteohub,2013-11-28 18:11:00,
2013-11-28 13:17:00,32.9,18.5,30.12,NW,315,6.0,11.0,55,0.00,,,0.00,meteohub,2013-11-28 18:17:00,
2013-11-28 13:21:00,32.4,18.5,30.12,North,0,4.0,8.0,56,0.00,,,0.00,meteohub,2013-11-28 18:21:00,
2013-11-28 13:26:00,32.2,19.4,30.11,SW,225,3.0,8.0,59,0.00,,,0.00,meteohub,2013-11-28 18:26:00,
2013-11-28 13:31:00,32.2,18.7,30.12,NE,45,4.0,7.0,57,0.00,,,0.00,meteohub,2013-11-28 18:31:00,
2013-11-28 13:37:00,31.8,18.3,30.12,North,0,6.0,9.0,57,0.00,,,0.00,meteohub,2013-11-28 18:37:00,
2013-11-28 13:42:00,31.8,18.3,30.12,South,180,5.0,9.0,57,0.00,,,0.00,meteohub,2013-11-28 18:42:00,
2013-11-28 13:47:00,31.6,18.1,30.13,NW,315,4.0,11.0,57,0.00,,,0.00,meteohub,2013-11-28 18:47:00,
2013-11-28 13:52:00,31.5,18.0,30.12,North,0,4.0,11.0,57,0.00,,,0.00,meteohub,2013-11-28 18:52:00,
2013-11-28 13:57:00,31.5,17.6,30.13,West,270,7.0,11.0,56,0.00,,,0.00,meteohub,2013-11-28 18:57:00,
2013-11-28 14:02:00,31.5,18.0,30.13,North,0,4.0,10.0,57,0.00,,,0.00,meteohub,2013-11-28 19:02:00,
2013-11-28 14:07:00,31.5,18.0,30.14,North,0,4.0,10.0,57,0.00,,,0.00,meteohub,2013-11-28 19:07:00,
2013-11-28 14:12:00,31.5,17.2,30.14,NW,315,4.0,7.0,55,0.00,,,0.00,meteohub,2013-11-28 19:12:00,
2013-11-28 14:17:00,31.5,17.6,30.14,NE,45,4.0,6.0,56,0.00,,,0.00,meteohub,2013-11-28 19:17:00,
2013-11-28 14:22:00,31.5,18.3,30.14,West,270,2.0,6.0,58,0.00,,,0.00,meteohub,2013-11-28 19:22:00,
2013-11-28 14:27:00,31.5,17.6,30.14,NW,315,3.0,6.0,56,0.00,,,0.00,meteohub,2013-11-28 19:27:00,
2013-11-28 14:32:00,31.5,17.6,30.14,East,90,8.0,11.0,56,0.00,,,0.00,meteohub,2013-11-28 19:32:00,
2013-11-28 14:37:00,31.5,18.9,30.15,South,180,3.0,11.0,59,0.00,,,0.00,meteohub,2013-11-28 19:37:00,
2013-11-28 14:42:00,31.5,17.6,30.15,SW,225,4.0,11.0,56,0.00,,,0.00,meteohub,2013-11-28 19:42:00,
2013-11-28 14:47:00,31.1,17.6,30.16,SE,135,3.0,8.0,57,0.00,,,0.00,meteohub,2013-11-28 19:47:00,
2013-11-28 14:52:00,31.1,17.2,30.16,NW,315,2.0,7.0,56,0.00,,,0.00,meteohub,2013-11-28 19:52:00,
2013-11-28 14:57:00,30.9,17.4,30.16,NW,315,4.0,7.0,57,0.00,,,0.00,meteohub,2013-11-28 19:57:00,
2013-11-28 15:02:00,31.1,18.1,30.16,North,0,3.0,5.0,58,0.00,,,0.00,meteohub,2013-11-28 20:02:00,
2013-11-28 15:07:00,30.9,17.1,30.17,NW,315,4.0,5.0,56,0.00,,,0.00,meteohub,2013-11-28 20:07:00,
2013-11-28 15:12:00,30.7,16.9,30.17,NW,315,3.0,5.0,56,0.00,,,0.00,meteohub,2013-11-28 20:12:00,
2013-11-28 15:17:00,30.7,16.0,30.17,NW,315,7.0,8.0,54,0.00,,,0.00,meteohub,2013-11-28 20:17:00,
2013-11-28 15:22:00,30.7,16.9,30.17,NW,315,3.0,8.0,56,0.00,,,0.00,meteohub,2013-11-28 20:22:00,
2013-11-28 15:27:00,30.6,16.3,30.18,NW,315,2.0,8.0,55,0.00,,,0.00,meteohub,2013-11-28 20:27:00,
2013-11-28 15:32:00,30.6,16.3,30.19,NW,315,3.0,7.0,55,0.00,,,0.00,meteohub,2013-11-28 20:32:00,
2013-11-28 15:37:00,30.4,15.8,30.18,NW,315,4.0,5.0,54,0.00,,,0.00,meteohub,2013-11-28 20:37:00,
2013-11-28 15:42:00,30.2,16.3,30.19,North,0,3.0,5.0,56,0.00,,,0.00,meteohub,2013-11-28 20:42:00,
2013-11-28 15:47:00,30.2,16.9,30.19,NE,45,3.0,4.0,57,0.00,,,0.00,meteohub,2013-11-28 20:47:00,
2013-11-28 15:52:00,30.0,17.1,30.19,SW,225,2.0,4.0,58,0.00,,,0.00,meteohub,2013-11-28 20:52:00,
2013-11-28 15:57:00,29.8,16.5,30.20,SW,225,1.0,4.0,57,0.00,,,0.00,meteohub,2013-11-28 20:57:00,
2013-11-28 16:02:00,29.7,16.7,30.20,SW,225,2.0,3.0,58,0.00,,,0.00,meteohub,2013-11-28 21:02:00,
2013-11-28 16:07:00,29.7,16.7,30.20,NW,315,2.0,3.0,58,0.00,,,0.00,meteohub,2013-11-28 21:07:00,
2013-11-28 16:12:00,29.7,16.3,30.21,West,270,2.0,4.0,57,0.00,,,0.00,meteohub,2013-11-28 21:12:00,
2013-11-28 16:17:00,29.7,15.8,30.21,West,270,1.0,4.0,56,0.00,,,0.00,meteohub,2013-11-28 21:17:00,
2013-11-28 16:22:00,29.5,16.2,30.22,North,0,2.0,4.0,57,0.00,,,0.00,meteohub,2013-11-28 21:22:00,
2013-11-28 16:27:00,29.3,16.3,30.22,North,0,2.0,4.0,58,0.00,,,0.00,meteohub,2013-11-28 21:27:00,
2013-11-28 16:32:00,29.1,15.8,30.22,NW,315,2.0,3.0,57,0.00,,,0.00,meteohub,2013-11-28 21:32:00,
2013-11-28 16:37:00,29.1,15.8,30.22,North,0,3.0,3.0,57,0.00,,,0.00,meteohub,2013-11-28 21:37:00,
2013-11-28 16:42:00,28.9,15.6,30.22,NW,315,2.0,5.0,57,0.00,,,0.00,meteohub,2013-11-28 21:42:00,
2013-11-28 16:47:00,28.9,16.0,30.22,North,0,2.0,5.0,58,0.00,,,0.00,meteohub,2013-11-28 21:47:00,
2013-11-28 16:52:00,28.8,15.8,30.23,West,270,0.0,5.0,58,0.00,,,0.00,meteohub,2013-11-28 21:52:00,
2013-11-28 16:57:00,28.6,15.6,30.23,North,0,3.0,5.0,58,0.00,,,0.00,meteohub,2013-11-28 21:57:00,
2013-11-28 17:02:00,28.8,15.1,30.24,NW,315,1.0,3.0,56,0.00,,,0.00,meteohub,2013-11-28 22:02:00,
2013-11-28 17:07:00,28.6,15.6,30.24,NW,315,1.0,3.0,58,0.00,,,0.00,meteohub,2013-11-28 22:07:00,
2013-11-28 17:12:00,28.4,15.4,30.25,SW,225,0.0,3.0,58,0.00,,,0.00,meteohub,2013-11-28 22:12:00,
2013-11-28 17:17:00,28.4,15.4,30.25,North,0,2.0,3.0,58,0.00,,,0.00,meteohub,2013-11-28 22:17:00,
2013-11-28 17:22:00,28.2,15.8,30.25,SW,225,0.0,2.0,59,0.00,,,0.00,meteohub,2013-11-28 22:22:00,
2013-11-28 17:27:00,28.0,15.3,30.26,NW,315,0.0,2.0,58,0.00,,,0.00,meteohub,2013-11-28 22:27:00,
2013-11-28 17:32:00,27.9,15.4,30.27,North,0,0.0,3.0,59,0.00,,,0.00,meteohub,2013-11-28 22:32:00,
2013-11-28 17:37:00,27.7,15.3,30.27,North,0,2.0,3.0,59,0.00,,,0.00,meteohub,2013-11-28 22:37:00,
2013-11-28 17:42:00,27.7,15.6,30.27,SW,225,0.0,3.0,60,0.00,,,0.00,meteohub,2013-11-28 22:42:00,
2013-11-28 17:47:00,27.5,15.1,30.27,South,180,0.0,3.0,59,0.00,,,0.00,meteohub,2013-11-28 22:47:00,
2013-11-28 17:52:00,27.1,15.1,30.27,SW,225,1.0,3.0,60,0.00,,,0.00,meteohub,2013-11-28 22:52:00,
2013-11-28 17:57:00,27.1,15.1,30.27,NW,315,0.0,3.0,60,0.00,,,0.00,meteohub,2013-11-28 22:57:00,
2013-11-28 18:02:00,27.0,14.9,30.28,NW,315,0.0,2.0,60,0.00,,,0.00,meteohub,2013-11-28 23:02:00,
2013-11-28 18:07:00,27.0,14.9,30.28,NE,45,0.0,2.0,60,0.00,,,0.00,meteohub,2013-11-28 23:07:00,
2013-11-28 18:12:00,26.8,14.7,30.28,SW,225,0.0,2.0,60,0.00,,,0.00,meteohub,2013-11-28 23:12:00,
2013-11-28 18:17:00,26.8,15.4,30.29,SW,225,2.0,2.0,62,0.00,,,0.00,meteohub,2013-11-28 23:17:00,
2013-11-28 18:22:00,26.8,15.4,30.29,South,180,2.0,2.0,62,0.00,,,0.00,meteohub,2013-11-28 23:22:00,
2013-11-28 18:27:00,26.6,16.3,30.29,SW,225,2.0,2.0,65,0.00,,,0.00,meteohub,2013-11-28 23:27:00,
2013-11-28 18:32:00,26.4,16.0,30.30,SW,225,1.0,2.0,64,0.00,,,0.00,meteohub,2013-11-28 23:32:00,
2013-11-28 18:37:00,26.2,16.5,30.29,SE,135,0.0,2.0,66,0.00,,,0.00,meteohub,2013-11-28 23:37:00,
2013-11-28 18:42:00,25.9,16.7,30.30,SW,225,2.0,2.0,68,0.00,,,0.00,meteohub,2013-11-28 23:42:00,
2013-11-28 18:47:00,25.9,16.5,30.30,SW,225,1.0,2.0,67,0.00,,,0.00,meteohub,2013-11-28 23:47:00,
2013-11-28 18:52:00,25.7,16.3,30.30,SW,225,0.0,2.0,67,0.00,,,0.00,meteohub,2013-11-28 23:52:00,
2013-11-28 18:57:00,25.5,16.2,30.30,SW,225,0.0,2.0,67,0.00,,,0.00,meteohub,2013-11-28 23:57:00,
2013-11-28 19:02:00,25.2,15.8,30.30,SW,225,0.0,1.0,67,0.00,,,0.00,meteohub,2013-11-29 00:02:00,
2013-11-28 19:07:00,25.2,17.1,30.31,South,180,1.0,1.0,71,0.00,,,0.00,meteohub,2013-11-29 00:07:00,
2013-11-28 19:12:00,25.2,17.4,30.31,South,180,1.0,2.0,72,0.00,,,0.00,meteohub,2013-11-29 00:12:00,
2013-11-28 19:17:00,25.0,17.2,30.31,South,180,2.0,2.0,72,0.00,,,0.00,meteohub,2013-11-29 00:17:00,
2013-11-28 19:22:00,25.0,17.6,30.32,South,180,2.0,2.0,73,0.00,,,0.00,meteohub,2013-11-29 00:22:00,
2013-11-28 19:27:00,25.0,18.5,30.32,South,180,2.0,2.0,76,0.00,,,0.00,meteohub,2013-11-29 00:27:00,
2013-11-28 19:32:00,24.8,18.3,30.32,South,180,2.0,2.0,76,0.00,,,0.00,meteohub,2013-11-29 00:32:00,
2013-11-28 19:37:00,24.6,18.1,30.32,SW,225,2.0,2.0,76,0.00,,,0.00,meteohub,2013-11-29 00:37:00,
2013-11-28 19:42:00,24.6,17.8,30.32,SE,135,2.0,2.0,75,0.00,,,0.00,meteohub,2013-11-29 00:42:00,
2013-11-28 19:47:00,24.3,18.3,30.32,SW,225,2.0,2.0,78,0.00,,,0.00,meteohub,2013-11-29 00:47:00,
2013-11-28 19:52:00,24.3,18.3,30.33,South,180,1.0,2.0,78,0.00,,,0.00,meteohub,2013-11-29 00:52:00,
2013-11-28 19:57:00,24.1,19.8,30.32,SE,135,0.0,2.0,83,0.00,,,0.00,meteohub,2013-11-29 00:57:00,
2013-11-28 20:02:00,23.9,19.6,30.32,SW,225,2.0,2.0,83,0.00,,,0.00,meteohub,2013-11-29 01:02:00,
2013-11-28 20:07:00,23.9,18.7,30.33,South,180,2.0,2.0,80,0.00,,,0.00,meteohub,2013-11-29 01:07:00,
2013-11-28 20:12:00,23.7,18.7,30.34,South,180,2.0,2.0,81,0.00,,,0.00,meteohub,2013-11-29 01:12:00,
2013-11-28 20:17:00,23.7,18.5,30.34,South,180,2.0,2.0,80,0.00,,,0.00,meteohub,2013-11-29 01:17:00,
2013-11-28 20:22:00,23.5,18.0,30.33,South,180,0.0,2.0,79,0.00,,,0.00,meteohub,2013-11-29 01:22:00,
2013-11-28 20:27:00,23.2,18.1,30.33,SW,225,2.0,2.0,81,0.00,,,0.00,meteohub,2013-11-29 01:27:00,
2013-11-28 20:32:00,23.2,18.5,30.33,SW,225,0.0,2.0,82,0.00,,,0.00,meteohub,2013-11-29 01:32:00,
2013-11-28 20:37:00,22.8,18.5,30.34,South,180,0.0,2.0,83,0.00,,,0.00,meteohub,2013-11-29 01:37:00,
2013-11-28 20:42:00,22.6,18.9,30.34,South,180,0.0,2.0,85,0.00,,,0.00,meteohub,2013-11-29 01:42:00,
2013-11-28 20:47:00,22.5,18.9,30.33,South,180,0.0,0.0,86,0.00,,,0.00,meteohub,2013-11-29 01:47:00,
2013-11-28 20:52:00,22.5,18.9,30.33,South,180,0.0,0.0,86,0.00,,,0.00,meteohub,2013-11-29 01:52:00,
2013-11-28 20:57:00,22.6,19.4,30.34,South,180,0.0,0.0,87,0.00,,,0.00,meteohub,2013-11-29 01:57:00,
2013-11-28 21:02:00,23.0,19.9,30.34,SE,135,0.0,0.0,88,0.00,,,0.00,meteohub,2013-11-29 02:02:00,
2013-11-28 21:07:00,23.2,19.6,30.35,South,180,0.0,0.0,86,0.00,,,0.00,meteohub,2013-11-29 02:07:00,
2013-11-28 21:12:00,23.2,19.6,30.34,South,180,0.0,0.0,86,0.00,,,0.00,meteohub,2013-11-29 02:12:00,
2013-11-28 21:17:00,23.0,19.4,30.35,South,180,0.0,0.0,86,0.00,,,0.00,meteohub,2013-11-29 02:17:00,
2013-11-28 21:22:00,23.4,20.1,30.34,South,180,0.0,0.0,87,0.00,,,0.00,meteohub,2013-11-29 02:22:00,
2013-11-28 21:27:00,23.4,20.1,30.35,South,180,0.0,0.0,87,0.00,,,0.00,meteohub,2013-11-29 02:27:00,
2013-11-28 21:32:00,23.5,20.5,30.35,North,0,2.0,0.0,88,0.00,,,0.00,meteohub,2013-11-29 02:32:00,
2013-11-28 21:37:00,23.7,21.0,30.35,SW,225,0.0,2.0,89,0.00,,,0.00,meteohub,2013-11-29 02:37:00,
2013-11-28 21:42:00,23.7,20.7,30.34,North,0,2.0,2.0,88,0.00,,,0.00,meteohub,2013-11-29 02:42:00,
2013-11-28 21:47:00,23.7,20.5,30.35,SW,225,0.0,2.0,87,0.00,,,0.00,meteohub,2013-11-29 02:47:00,
2013-11-28 21:52:00,23.7,20.7,30.34,North,0,0.0,2.0,88,0.00,,,0.00,meteohub,2013-11-29 02:52:00,
2013-11-28 21:57:00,23.7,20.7,30.35,South,180,0.0,2.0,88,0.00,,,0.00,meteohub,2013-11-29 02:57:00,
2013-11-28 22:02:00,23.9,21.2,30.35,South,180,0.0,0.0,89,0.00,,,0.00,meteohub,2013-11-29 03:02:00,
2013-11-28 22:07:00,24.1,21.4,30.35,South,180,0.0,0.0,89,0.00,,,0.00,meteohub,2013-11-29 03:07:00,
2013-11-28 22:12:00,24.3,21.2,30.35,SE,135,0.0,0.0,88,0.00,,,0.00,meteohub,2013-11-29 03:12:00,
2013-11-28 22:17:00,24.4,21.2,30.35,South,180,2.0,0.0,87,0.00,,,0.00,meteohub,2013-11-29 03:17:00,
2013-11-28 22:22:00,24.6,21.4,30.35,SE,135,0.0,2.0,87,0.00,,,0.00,meteohub,2013-11-29 03:22:00,
2013-11-28 22:27:00,24.6,21.4,30.35,South,180,0.0,2.0,87,0.00,,,0.00,meteohub,2013-11-29 03:27:00,
2013-11-28 22:32:00,24.6,21.4,30.36,North,0,0.0,2.0,87,0.00,,,0.00,meteohub,2013-11-29 03:32:00,
2013-11-28 22:36:00,24.6,21.9,30.36,SE,135,0.0,1.0,89,0.00,,,0.00,meteohub,2013-11-29 03:36:00,
2013-11-28 22:41:00,24.6,21.9,30.36,SE,135,0.0,0.0,89,0.00,,,0.00,meteohub,2013-11-29 03:41:00,
2013-11-28 22:46:00,24.4,21.7,30.36,NW,315,0.0,0.0,89,0.00,,,0.00,meteohub,2013-11-29 03:46:00,
2013-11-28 22:51:00,24.6,21.9,30.36,West,270,0.0,2.0,89,0.00,,,0.00,meteohub,2013-11-29 03:51:00,
2013-11-28 22:56:00,24.8,22.1,30.36,South,180,0.0,2.0,89,0.00,,,0.00,meteohub,2013-11-29 03:56:00,
2013-11-28 23:01:00,25.0,21.9,30.36,South,180,0.0,2.0,88,0.00,,,0.00,meteohub,2013-11-29 04:01:00,
2013-11-28 23:06:00,25.2,22.1,30.36,South,180,2.0,2.0,88,0.00,,,0.00,meteohub,2013-11-29 04:06:00,
2013-11-28 23:11:00,25.5,22.3,30.36,East,90,1.0,2.0,87,0.00,,,0.00,meteohub,2013-11-29 04:11:00,
2013-11-28 23:17:00,25.7,21.7,30.36,SW,225,0.0,2.0,85,0.00,,,0.00,meteohub,2013-11-29 04:17:00,
2013-11-28 23:22:00,25.9,21.9,30.36,SE,135,0.0,2.0,85,0.00,,,0.00,meteohub,2013-11-29 04:22:00,
2013-11-28 23:27:00,26.1,21.4,30.36,NW,315,1.0,2.0,82,0.00,,,0.00,meteohub,2013-11-29 04:27:00,
2013-11-28 23:32:00,26.1,22.1,30.36,NW,315,1.0,2.0,85,0.00,,,0.00,meteohub,2013-11-29 04:32:00,
2013-11-28 23:37:00,26.1,22.5,30.37,North,0,0.0,2.0,86,0.00,,,0.00,meteohub,2013-11-29 04:37:00,
2013-11-28 23:42:00,25.9,22.5,30.36,North,0,1.0,2.0,87,0.00,,,0.00,meteohub,2013-11-29 04:42:00,
2013-11-28 23:47:00,25.9,22.8,30.37,North,0,0.0,2.0,88,0.00,,,0.00,meteohub,2013-11-29 04:47:00,
2013-11-28 23:52:00,25.7,22.6,30.37,North,0,0.0,2.0,88,0.00,,,0.00,meteohub,2013-11-29 04:52:00,
2013-11-28 23:56:00,25.5,22.3,30.36,North,0,0.0,2.0,87,0.00,,,0.00,meteohub,2013-11-29 04:56:00,